Regional Weather Roundup
Issued by NWS Boston, MA

Current Version | Previous Version | Text Only | Print | Product List | Glossary Off
Versions: 1 2 3 4 5 6 7 8 9 10 11 12 13 14 15 16 17 18 19 20 21 22 23 24 25 26 27 28 29 30 31 32 33 34 35 36 37 38 39 40 41 42 43 44 45 46 47 48 49 50
000 ASUS41 KBOX 191110 RWRBOX REGIONAL WEATHER ROUNDUP NATIONAL WEATHER SERVICE BOSTON/NORTON MA 700 AM EDT THU APR 19 2018 NOTE: "FAIR" INDICATES FEW OR NO CLOUDS BELOW 12,000 FEET WITH NO SIGNIFICANT WEATHER AND/OR OBSTRUCTIONS TO VISIBILITY. MAZALL-191200- EASTERN MASSACHUSETTS CITY SKY/WX TMP DP RH WIND PRES REMARKS BOSTON CLOUDY 43 29 57 SW9 29.76R BEVERLY CLOUDY 42 30 62 W6 29.73R LAWRENCE CLOUDY 44 29 55 SW6 29.74R BEDFORD CLOUDY 40 30 67 SW3 29.73R BLUE HILL N/A 37 31 78 W7 29.71R WCI 32 NORWOOD LGT RAIN 41 33 73 SW6 29.75R MARSHFIELD LGT RAIN 39 36 87 SW5 29.76R PLYMOUTH LGT RAIN 40 36 86 S3 29.77R TAUNTON LGT RAIN 40 38 93 CALM 29.75R NEW BEDFORD LGT RAIN 41 39 93 CALM 29.77R $$ MAZALL-191200- CAPE COD AND THE ISLANDS CITY SKY/WX TMP DP RH WIND PRES REMARKS FALMOUTH DRIZZLE 41 41 100 SW5 29.79 HYANNIS RAIN 43 39 86 SW5 29.76R CHATHAM LGT RAIN 43 41 93 SW3 29.77R PROVINCETOWN LGT RAIN 42 36 79 SW5 29.76R NANTUCKET CLOUDY 43 43 100 CALM 29.75R MARTHAS VNYRD CLOUDY 42 40 92 NW5 29.76R $$ MAZALL-191200- CENTRAL AND WESTERN MASSACHUSETTS CITY SKY/WX TMP DP RH WIND PRES REMARKS WORCESTER LGT SNOW 32 31 96 CALM 29.68 FOG FITCHBURG CLOUDY 43 30 60 S3 29.73S ORANGE FLURRIES 36 31 82 S6 29.72S WCI 31 SPRINGFIELD LGT SNOW 34 31 91 CALM 29.70 FOG WESTFIELD LGT RAIN 33 33 100 CALM 29.71F FOG NORTH ADAMS FLURRIES 33 31 92 CALM 29.71S PITTSFIELD LGT SNOW 33 30 88 CALM 29.66F VSB 1 $$ RIZALL-191200- RHODE ISLAND CITY SKY/WX TMP DP RH WIND PRES REMARKS PROVIDENCE RAIN 40 39 97 S6 29.78R FOG NEWPORT LGT RAIN 41 40 96 CALM 29.76R FOG BLOCK ISLAND CLOUDY 41 40 96 N6 29.74R SMITHFIELD LGT RAIN 36 35 96 MISG 29.74R WESTERLY CLOUDY 42 42 100 N5 29.76S FOG $$ CTZALL-191200- CONNECTICUT CITY SKY/WX TMP DP RH WIND PRES REMARKS BRADLEY INTL LGT RAIN 36 34 92 N3 29.73S HARTFORD LGT RAIN 38 36 92 SE5 29.75S FOG BRIDGEPORT RAIN 41 37 86 NE6 29.74F FOG DANBURY RAIN 37 35 92 SE5 29.72F FOG GROTON LGT RAIN 41 41 100 N6 29.74F NEW HAVEN RAIN 40 37 89 N6 29.74S FOG CHESTER LGT RAIN 39 37 93 MISG 29.74F MERIDEN LGT RAIN 37 36 96 S3 29.75R FOG WILLIMANTIC LGT RAIN 38 36 92 S5 29.75R FOG OXFORD LGT RAIN 36 35 96 SE5 29.72S $$ MEZ002-015-021-024-NHZ003-005-008-011-012-014-VTZ005-008-191200- NORTHERN NEW ENGLAND CITY SKY/WX TMP DP RH WIND PRES REMARKS PORTLAND ME PTSUNNY 41 30 65 SW5 29.68F BANGOR ME CLOUDY 42 31 64 W7 29.68R CONCORD NH CLOUDY 38 29 70 SW3 29.71R MANCHESTER NH CLOUDY 43 28 55 SW3 29.71R NASHUA NH CLOUDY 40 29 64 CALM 29.73R PORTSMOUTH NH CLOUDY 40 30 67 SW5 29.71R JAFFREY NH LGT SNOW 36 30 79 W6 29.69F WCI 31 KEENE NH LGT RAIN 37 29 72 W3 29.72R BURLINGTON VT FLURRIES 38 30 73 N5 29.69R MT. WASHINGTON FOG 16 16 100 W32 N/A VSB 0 WCI -5 $$ NYZ052-076-191200- EASTERN NEW YORK CITY SKY/WX TMP DP RH WIND PRES REMARKS ALBANY CLOUDY 36 31 82 NW3 29.73F NEW YORK CITY LGT RAIN 43 36 76 NE7 29.72F $$ ANZALL-191200- MARINE OBSERVATIONS STATION/POSITION TIME TEMP WIND PRES VSBY WAVE AIR SEA DIR/SP/G HT/PER (UTC) (F) (DEG/KT/KT) (MB) (MI) (FT/S) BOSTON BUOY 1050 42 43 200/ 6/ 8 1006.3R 1/ 9 BUZZARDS BAY 1000 41 190/ 4/ 5 1006.9F NANTUCKET SOUND 0950 42 42 190/ 6/ 6 1006.3 1 MASS BAY-STELLWA 1004 41 41 1005.4R 2/11 ISLE OF SHOALS 1100 41 240/ 11/ 12 1006.1R S OF BLOCK IS 1043 41 N/A 3/ 9 $$ ......................KEY......................... SKY/WX - SKY CONDITION/PRESENT WEATHER TMP - TEMPERATURE IN FAHRENHEIT DWPT - DEWPOINT IN FAHRENHEIT RH - RELATIVE HUMIDITY IN PERCENT WIND - DIRECTION AND SPEED IN MPH PRES - MEAN SEA LEVEL PRESSURE IN INCHES OF HG WCI - WIND CHILL INDEX VSB - VISIBILITY IN MILES HX - HEAT INDEX TC - TEMPERATURE IN CELSIUS VRB - VARIABLE WIND DIRECTION N/A - NOT AVAILABLE

USA.gov is the U.S. government's official web portal to all federal, state and local government web resources and services.